Waarnemingen

Advertentie
Mijn weer
Estepona, Spanje (8463): temperatuur & dauwpunt: 21.01.2021 14:00:00 - 27.01.2021 14:00:00 (CET)Estepona, Spanje (8463): windsnelheid & windstoten: 21.01.2021 14:00:00 - 27.01.2021 14:00:00 (CET)Estepona, Spanje (8463): windrichting: 21.01.2021 14:00:00 - 27.01.2021 14:00:00 (CET)Estepona, Spanje (8463): luchtdruk: 21.01.2021 14:00:00 - 27.01.2021 14:00:00 (CET)Estepona, Spanje (8463): zicht: 21.01.2021 14:00:00 - 27.01.2021 14:00:00 (CET)Estepona, Spanje (8463): Zonneschijnduur: 21.01.2021 14:00:00 - 27.01.2021 14:00:00 (CET)Estepona, Spanje (8463): neerslag: 21.01.2021 14:00:00 - 27.01.2021 14:00:00 (CET)
Datum & Tijd tt [°C] td [°C] ff [km/u] ff [kn] fx [km/u] fx [kn] dd ppp [hPa] vv [km] sd [min] rr [mm]
27.01.2021 14:00:00 - - - - - - - - - - -
27.01.2021 13:00:00 18,4 12,6 4 2 7 4 ZZW 1026,6 20 20 -
27.01.2021 12:00:00 17,7 12,3 3 2 8 4 Z 1027,4 20 60 0,0
27.01.2021 11:00:00 17,6 13,9 2 1 4 2 ZO 1027,1 20 25 0,0
27.01.2021 10:00:00 15,2 12,7 1 1 5 3 ZZO 1026,5 20 0 0,0
27.01.2021 09:00:00 13,7 11,2 2 1 6 3 ONO 1026,3 20 0 0,0
27.01.2021 08:00:00 13,4 10,9 2 1 6 3 W 1025,9 20 0 0,0
27.01.2021 07:00:00 13,5 10,9 2 1 5 3 NW 1025,7 20 0 -
27.01.2021 06:00:00 13,6 10,8 2 1 5 3 WZW 1025,8 20 0 0,0
27.01.2021 05:00:00 14,0 11,0 1 1 5 3 N 1026,1 20 0 0,0
27.01.2021 04:00:00 14,8 11,8 4 2 7 4 W 1026,3 20 0 0,0
27.01.2021 03:00:00 15,0 12,0 4 2 7 4 NNW 1026,6 20 0 0,0
27.01.2021 02:00:00 15,1 11,9 3 2 9 5 NW 1026,8 20 0 0,0
27.01.2021 01:00:00 - - - - - - - - - - -
27.01.2021 00:00:00 15,4 12,0 2 1 11 6 N 1027,4 20 0 0,0
26.01.2021 23:00:00 15,8 12,2 1 1 19 10 O 1027,5 20 0 0,0
26.01.2021 22:00:00 16,3 12,6 8 5 20 11 W 1027,4 20 0 0,0
26.01.2021 21:00:00 16,6 13,0 13 7 35 19 WZW 1027,6 20 0 0,0
26.01.2021 20:00:00 16,8 13,0 22 12 37 20 ZW 1027,2 20 0 0,0
26.01.2021 19:00:00 17,7 13,1 19 11 39 21 WZW 1026,7 20 14 -
26.01.2021 18:00:00 19,9 13,4 16 8 36 20 WZW 1026,0 20 58 0,0
26.01.2021 17:00:00 21,0 13,5 16 9 39 21 WZW 1025,6 20 11 0,0
26.01.2021 16:00:00 21,1 13,1 21 11 39 21 W 1025,4 20 0 0,0
26.01.2021 15:00:00 21,6 13,3 16 9 39 21 W 1025,4 20 0 0,0
26.01.2021 14:00:00 21,5 12,3 22 12 42 23 W 1025,7 20 0 0,0
26.01.2021 13:00:00 19,8 13,1 21 12 40 22 WZW 1026,6 20 19 -
26.01.2021 12:00:00 18,8 12,5 21 11 38 21 WZW 1027,5 20 60 0,0
26.01.2021 11:00:00 17,6 12,3 20 11 36 19 WZW 1027,5 20 31 0,0
26.01.2021 10:00:00 16,3 11,7 22 12 37 20 WZW 1026,7 20 0 0,0
26.01.2021 09:00:00 15,7 11,1 14 8 40 22 ZW 1026,1 20 0 0,0
26.01.2021 08:00:00 15,7 10,6 16 9 37 20 WZW 1025,4 20 0 0,0
26.01.2021 07:00:00 16,2 10,0 5 3 34 18 WZW 1025,0 20 0 -
26.01.2021 06:00:00 15,6 10,8 19 11 49 27 WZW 1024,6 20 0 0,0
26.01.2021 05:00:00 15,9 10,2 17 9 44 24 WZW 1024,2 20 0 0,0
26.01.2021 04:00:00 15,6 11,2 26 14 45 24 WZW 1024,3 20 0 0,0
26.01.2021 03:00:00 15,6 11,2 15 8 36 20 WZW 1024,4 20 0 0,0
26.01.2021 02:00:00 16,2 10,9 19 10 37 20 WZW 1023,9 20 0 0,0
26.01.2021 01:00:00 16,9 10,8 13 7 39 21 W 1023,8 20 0 -
26.01.2021 00:00:00 16,4 10,6 14 8 32 18 WNW 1023,5 20 0 0,0
25.01.2021 23:00:00 15,9 11,2 21 11 37 20 W 1023,5 20 0 0,0
25.01.2021 22:00:00 15,7 11,7 19 10 32 18 W 1022,9 20 0 0,0
25.01.2021 21:00:00 15,5 11,7 14 8 34 18 W 1022,7 20 0 0,0
25.01.2021 20:00:00 15,5 12,1 13 7 31 17 W 1022,3 20 0 0,0
25.01.2021 19:00:00 15,8 12,7 19 11 36 19 WZW 1021,4 20 0 -
25.01.2021 18:00:00 16,2 13,7 19 10 37 20 WZW 1020,8 20 9 2,4
25.01.2021 17:00:00 16,2 13,7 16 9 31 17 WZW 1020,5 8 0 2,6
25.01.2021 16:00:00 16,3 13,6 18 10 40 22 W 1020,1 20 0 3,0
25.01.2021 15:00:00 16,5 13,5 18 10 38 20 WZW 1020,1 7 0 1,4
25.01.2021 14:00:00 16,5 13,5 21 11 39 21 WZW 1020,5 20 0 0,4
25.01.2021 13:00:00 16,7 13,5 16 8 33 18 W 1021,6 7 0 -
25.01.2021 12:00:00 15,9 12,8 14 8 26 14 WZW 1021,9 20 0 0,6
25.01.2021 11:00:00 16,1 12,2 16 9 32 18 WZW 1021,9 10 11 0,2
25.01.2021 10:00:00 15,4 11,6 16 9 28 15 WZW 1021,2 20 0 0,0
25.01.2021 09:00:00 14,6 11,3 13 7 29 15 WZW 1020,8 20 0 0,0
25.01.2021 08:00:00 14,0 10,8 13 7 25 13 WZW 1020,4 20 0 0,0
25.01.2021 07:00:00 14,5 10,3 14 7 24 13 WZW 1020,3 11 0 -
25.01.2021 06:00:00 14,2 9,2 10 5 25 13 WZW 1020,2 20 0 0,0
25.01.2021 05:00:00 14,0 8,7 3 1 21 11 WNW 1020,4 19 0 0,0
25.01.2021 04:00:00 14,1 8,3 10 5 23 12 WZW 1020,6 20 0 0,0
25.01.2021 03:00:00 14,2 8,0 9 5 22 12 W 1020,4 20 0 0,0
25.01.2021 02:00:00 14,3 7,8 15 8 24 13 WZW 1020,5 20 0 0,0
25.01.2021 01:00:00 14,4 7,4 11 6 26 14 W 1020,5 20 0 -
25.01.2021 00:00:00 14,8 6,8 12 7 24 13 W 1020,4 20 0 0,0
24.01.2021 23:00:00 15,8 6,5 5 3 20 11 ZW 1020,1 20 0 0,0
24.01.2021 22:00:00 16,1 5,1 4 2 37 20 NNO 1019,7 20 0 0,0
24.01.2021 21:00:00 16,6 5,3 20 11 36 19 W 1019,6 20 0 0,0
24.01.2021 20:00:00 15,8 7,3 14 8 30 16 WZW 1019,6 20 0 0,0
24.01.2021 19:00:00 16,6 7,0 16 9 29 16 WZW 1018,9 20 5 -
24.01.2021 18:00:00 17,9 7,0 13 7 28 15 WZW 1018,8 20 39 0,0
24.01.2021 17:00:00 18,3 7,1 11 6 31 17 W 1018,6 20 0 0,0
24.01.2021 16:00:00 18,6 8,3 16 9 35 19 W 1018,5 20 0 0,0
24.01.2021 15:00:00 18,9 11,0 16 8 40 22 W 1018,7 20 0 0,0
24.01.2021 14:00:00 18,6 12,8 19 10 41 22 W 1019,3 20 0 0,0
24.01.2021 13:00:00 17,1 14,5 21 11 33 18 WZW 1020,0 20 0 -
24.01.2021 12:00:00 16,2 13,9 18 10 29 16 WZW 1020,7 11 0 0,2
24.01.2021 11:00:00 15,7 13,4 16 9 39 21 WZW 1020,6 14 0 1,0
24.01.2021 10:00:00 15,4 13,1 16 8 34 18 WZW 1019,8 13 0 1,4
24.01.2021 09:00:00 15,0 12,5 18 10 39 21 WZW 1019,3 8 0 2,8
24.01.2021 08:00:00 15,0 12,5 21 11 36 19 WZW 1019,1 12 0 0,0
24.01.2021 07:00:00 14,8 12,4 20 11 35 19 WZW 1018,9 20 0 -
24.01.2021 06:00:00 14,8 12,3 19 10 36 19 WZW 1018,8 17 0 4,6
24.01.2021 05:00:00 14,9 12,2 19 10 36 20 WZW 1019,0 20 0 1,2
24.01.2021 04:00:00 14,9 12,4 18 10 42 23 W 1019,4 13 0 0,4
24.01.2021 03:00:00 14,7 12,4 23 12 40 21 WZW 1019,7 11 0 1,6
24.01.2021 02:00:00 14,5 12,0 18 10 32 18 WZW 1020,0 4,3 0 2,0
24.01.2021 01:00:00 14,4 11,9 21 11 33 18 WZW 1020,9 12 0 -
24.01.2021 00:00:00 14,2 11,3 12 7 26 14 WZW 1021,0 8 0 1,0
23.01.2021 23:00:00 13,9 10,9 10 5 23 13 W 1021,5 8 0 1,0
23.01.2021 22:00:00 13,9 10,2 14 8 35 19 WZW 1021,7 8 0 0,2
23.01.2021 21:00:00 15,2 8,9 16 8 31 17 W 1022,1 8 0 0,0
23.01.2021 20:00:00 15,2 8,7 17 9 41 22 W 1021,8 20 0 0,0
23.01.2021 19:00:00 15,6 8,1 18 10 38 20 W 1021,6 20 0 -
23.01.2021 18:00:00 15,9 7,8 13 7 35 19 WZW 1021,4 20 0 0,0
23.01.2021 17:00:00 16,4 8,9 21 11 49 26 WZW 1021,2 20 0 0,0
23.01.2021 16:00:00 16,5 8,5 20 11 43 23 WZW 1021,5 20 0 0,0
23.01.2021 15:00:00 16,6 9,0 15 8 40 21 WZW 1022,1 20 0 0,0
23.01.2021 14:00:00 17,0 8,1 23 12 42 23 WZW 1022,7 20 0 0,0
23.01.2021 13:00:00 17,5 7,6 19 11 37 20 W 1023,8 20 1 -
23.01.2021 12:00:00 16,5 8,0 18 10 36 19 WZW 1024,4 20 36 0,0
23.01.2021 11:00:00 15,5 8,0 19 10 37 20 WZW 1024,1 20 30 0,0
23.01.2021 10:00:00 14,4 7,7 14 8 28 15 WZW 1023,6 20 0 0,0
23.01.2021 09:00:00 13,6 6,4 15 8 32 18 WZW 1023,2 20 0 0,0
23.01.2021 08:00:00 - - - - - - - - - - -
23.01.2021 07:00:00 13,0 7,3 14 8 30 16 WZW 1023,2 20 0 -
23.01.2021 06:00:00 12,9 7,6 9 5 24 13 WZW 1023,3 20 0 0,0
23.01.2021 05:00:00 12,8 7,7 8 4 20 11 WZW 1023,3 20 0 0,0
23.01.2021 04:00:00 12,8 7,7 13 7 33 18 WZW 1023,5 20 0 0,0
23.01.2021 03:00:00 12,9 8,0 14 8 26 14 WZW 1023,6 20 0 0,0
23.01.2021 02:00:00 12,4 7,8 6 3 24 13 W 1023,8 15 0 0,0
23.01.2021 01:00:00 13,0 8,9 10 6 21 11 WZW 1024,5 13 0 -
23.01.2021 00:00:00 14,0 8,8 10 5 36 20 W 1024,9 4,9 0 0,2
22.01.2021 23:00:00 14,4 9,0 16 9 34 18 WZW 1024,3 18 0 0,0
22.01.2021 22:00:00 14,3 8,5 14 7 28 15 WZW 1023,8 18 0 0,0
22.01.2021 21:00:00 14,5 8,3 15 8 27 14 WZW 1023,5 19 0 0,0
22.01.2021 20:00:00 14,7 7,4 14 7 27 15 WZW 1023,0 20 0 0,0
22.01.2021 19:00:00 15,6 7,1 16 8 48 26 W 1021,3 19 10 -
22.01.2021 18:00:00 17,0 5,6 22 12 52 28 W 1020,3 20 58 0,0
22.01.2021 17:00:00 18,1 4,3 20 11 54 29 W 1019,5 20 10 0,0
22.01.2021 16:00:00 18,5 3,6 25 14 62 34 W 1019,0 20 0 0,0
22.01.2021 15:00:00 18,6 1,5 26 14 71 38 W 1019,3 20 0 0,0
22.01.2021 14:00:00 19,3 3,0 24 13 72 39 W 1019,2 20 1 0,0
22.01.2021 13:00:00 18,6 5,5 28 15 68 37 W 1019,5 17 14 -
22.01.2021 12:00:00 18,0 6,5 23 12 57 31 W 1020,1 18 59 0,0
22.01.2021 11:00:00 17,5 6,4 23 12 63 34 W 1020,1 19 27 0,0
22.01.2021 10:00:00 17,3 8,1 18 10 60 33 W 1019,2 20 0 0,0
22.01.2021 09:00:00 16,9 9,6 27 15 59 32 W 1018,3 20 0 0,0
22.01.2021 08:00:00 16,4 10,3 24 13 45 24 W 1017,8 20 0 0,0
22.01.2021 07:00:00 16,3 12,2 18 10 50 27 W 1018,2 20 0 -
22.01.2021 06:00:00 16,3 12,8 26 14 45 25 W 1018,4 20 0 0,0
22.01.2021 05:00:00 15,8 13,0 14 8 37 20 W 1019,1 20 0 0,6
22.01.2021 04:00:00 15,6 12,3 19 10 37 20 WZW 1019,9 20 0 0,6
22.01.2021 03:00:00 15,5 11,3 13 7 32 18 W 1020,0 20 0 0,0
22.01.2021 02:00:00 15,9 10,2 14 8 37 20 W 1020,9 19 0 0,0
22.01.2021 01:00:00 15,1 10,5 10 5 22 12 WZW 1021,5 20 0 -
22.01.2021 00:00:00 14,7 10,5 4 2 12 7 WZW 1022,6 20 0 0,0
21.01.2021 23:00:00 14,5 10,5 8 4 21 11 WZW 1023,1 19 0 0,0
21.01.2021 22:00:00 14,6 10,8 11 6 22 12 WZW 1023,0 16 0 0,0
21.01.2021 21:00:00 14,9 10,9 10 5 19 10 WZW 1023,1 18 0 0,0
21.01.2021 20:00:00 15,3 10,6 11 6 22 12 WZW 1023,0 19 0 0,0
21.01.2021 19:00:00 15,6 10,5 10 5 28 15 W 1023,0 12 0 -
21.01.2021 18:00:00 16,7 9,7 11 6 29 15 W 1022,4 20 2 0,0
21.01.2021 17:00:00 17,5 9,9 10 6 32 18 W 1022,2 19 0 0,0
21.01.2021 16:00:00 17,0 9,2 16 9 47 25 W 1022,2 20 0 0,0
21.01.2021 15:00:00 17,2 10,0 17 9 42 23 W 1022,4 20 0 0,0
21.01.2021 14:00:00 17,8 10,2 19 10 40 22 W 1022,9 20 0 0,0

tt = temperatuur
td = dauwpunt
ff = windsnelheid
fx = windstoten
dd = windrichting
ppp = luchtdruk
vv = zicht
sd = Zonneschijnduur
rr = neerslag

Weerstations in de omgeving